{"data":{"norad_id":51720,"intl_designator":"2022-016G","name":"STARLINK-3526","alt_names":[],"object_type":"PAYLOAD","status":"ACTIVE","operator":null,"country":"US","launch_date":"2022-02-21","launch_site_code":"AFETR","launch_vehicle":null,"mission":null,"orbit_class":"UNKNOWN","rcs_meters":null,"size_class":null,"mass_kg":null,"dimensions":null,"purposes":["comms"],"wikipedia_slug":null,"has_3d_model":false,"image_url":null,"decayed_at":null,"tle_current":{"epoch":"2026-09-20T00:15:40.849344Z","epoch_age_seconds":90735,"freshness":"FRESH","line1":"1 51720U 22016G   26263.01088946  .00000309  00000+0  21705-4 0  9991","line2":"2 51720  53.1604 162.1878 0001351  82.6778 277.4377 15.31708397252951","mean_motion":15.31708397,"eccentricity":0.0001351,"inclination_deg":53.1604,"raan_deg":162.1878,"arg_perigee_deg":82.6778,"mean_anomaly_deg":277.4377,"bstar":2.1705e-5,"rev_number":25295,"period_min":94.012672570078,"perigee_km":469.78968441956,"apogee_km":471.64024422032,"semimajor_km":6848.8519643199,"source":"CELESTRAK","updated_at":"2026-09-20T09:00:39.598295Z"}}}